Simultaneous Nadir Overpasses (SNOs) Predictions

Prediction of SNOs between GOES-15 and NPP Satellite Orbit:

Table of predicted SNOs for the next 14.0 days since TLE Epoch: 10/19/2014
Index Date Time (GOES-15) GOES-15 Lat,Lon NPP Lat,Lon Distance(km) Time Diff (sec)
1 10/19/2014 22:36:34 -0.16,-135.30 -0.29,-136.02 81.26 80
2 10/20/2014 22:20:27 -0.17,-135.30 0.67,-131.47 435.19 80
3 10/22/2014 10:39:32 0.14,-135.28 0.46,-136.74 167.07 80
4 10/23/2014 10:23:25 0.16,-135.26 -0.51,-132.20 348.58 80
5 10/24/2014 22:42:39 -0.13,-135.23 -0.63,-137.50 259.21 80
6 10/25/2014 22:26:31 -0.14,-135.21 0.34,-132.96 256.30 80
7 10/27/2014 10:45:37 0.11,-135.18 0.79,-138.23 346.81 80
8 10/28/2014 10:29:29 0.13,-135.16 -0.18,-133.68 167.74 80
9 10/29/2014 22:48:43
